Probability
0 0 0 0 0 0 0 0 0 0 0 0 0 0 0 0 0 0 0 0 0 0 0 0 0 0 0 0 0 0 0 0 0 0 0 0 0 0 0 0 0 0 0
0 0 0 0 0 0 0 0 0 0 0 0 0 0 0 0 0 0 0 0 0 0 0 0 0 0 0 0 0 0 0 0 0 0 0 0 0 0 0 0 0 0 0
0 0 0 0 0 0 0 0 0 0 0 0 0 0 0 0 0 0 0 0 0 0 0 0 0 0 0 0 0 0 0 0 0 0 0 0 0 0 0 0 0 0 0
0 0 0 0 0 0 0 0 0 0 0 0 0 0 0 0 0 0 0 0 0 0 0 0 0 0 0 0 0 0 0 0 0 0 0 0 0 0 0 0 0 0 0
0 0 0 0 0 0 0 0 0 0 0 0 0 0 0 0 0 0 0 0 0 0 0 0 0 0 0 0 0 0 0 0 0 0 0 0 0 0 0 0 0 0 0
0 0 0 0 0 0 0 0 0 0 0 0 0 0 0 0 0 0 0 0 0 0 0 0 0 0 0 0 0 0 0 0 0 0 0 0 0 0 0 0 0 0 0
0 0 0 0 0 0 0 0 0 0 0 0 0 0 0 0 0 0 0 0 0 0 0 0 0 0 0 0 0 0 0 0 0 0 0 0 0 0 0 0 0 0 0
0 0 0 0 0 0 0 0 0 0 0 0 0 0 0 0 0 0 0 0 0 0 0 0 0 0 0 0 0 0 0 0 0 0 0 0 0 0 0 0 0 0 0
0 0 0 0 0 0 0 0 0 0 0 0 0 0 0 0 0 0 0 0 0 0 0 0 0 0 0 0 0 0 0 0 0 0 0 0 0 0 0 0 0 0 0
0 0 0 0 0 0 0 0 0 0 0 0 0 0 0 0 0 0 0 0 0 0 0 0 0 0 0 0 0 0 0 0 0 0 0 0 0 0 0 0 0 0 0
0 0 0 0 0 0 0 0 0 0 0 0 0 0 0 0 0 0 0 0 0 0 0 0 0 0 0 0 0 0 0 0 0 0 0 0 0 0 0 0 0 0 0
0 0 0 0 0 0 0 0 0 0 0 0 0 0 0 0 0 0 0 0 0 0 0 0 0 0 0 0 0 0 0 0 0 0 0 0 0 0 0 0 0 0 0
0 0 0 0 0 0 0 0 0 0 0 0 0 0 0 0 0 0 0 0 0 0 0 0 0 0 0 0 0 0 0 0 0 0 0 0 0 0 0 0 0 0 0
0 0 0 0 0 0 0 0 0 0 0 0 0 0 0 0 0 0 0 0 0 0 0 0 0 0 0 0 0 0 0 0 0 0 0 0 0 0 0 0 0 0 0
0 0 0 0 0 0 0 0 0 0 0 0 0 0 0 0 0 0 0 0 0 0 0 0 0 0 0 0 0 0 0 0 0 0 0 0 0 0 0 0 0 0 0
0 0 0 0 0 0 0 0 0 0 0 0 0 0 0 0 0 0 0 0 0 0 0 0 0 0 0 0 0 0 0 0 0 0 0 0 0 0 0 0 0 0 0
0 0 0 0 0 0 0 0 0 0 0 0 0 0 0 0 0 0 0 0 0 0 0 0 0 0 0 0 0 0 0 0 0 0 0 0 0 0 0 0 0 0 0
0 0 0 0 0 0 0 0 0 0 0 0 0 0 0 0 0 0 0 0 0 0 0 0 0 0 0 0 0 0 0 0 0 0 0 0 0 0 0 0 0 0 0
0 0 0 0 0 0 0 0 0 0 0 0 0 0 0 0 0 0 0 0 0 0 0 0 0 0 0 0 0 0 0 0 0 0 0 0 0 0 0 0 0 0 0
0 0 0 0 0 0 0 0 0 0 0 0 0 0 0 0 0 0 0 0 0 0 0 0 0 0 0 0 0 0 0 0 0 0 0 0 0 0 0 0 0 0 0
0 0 0 0 0 0 0 0 0 0 0 0 0 0 0 0 0 0 0 0 0 0 0 0 0 0 0 0 0 0 0 0 0 0 0 0 0 0 0 0 0 0 0
0 0 0 0 0 0 0 0 0 0 0 0 0 0 0 0 0 0 0 0 0 0 0 0 0 0 0 0 0 0 0 0 0 0 0 0 0 0 0 0 0 0 0
0 0 0 0 0 0 0 0 0 0 0 0 0 0 0 0 0 0 0 0 0 0 0 0 0 0 0 0 0 0 0 0 0 0 0 0 0 0 0 0 0 0 0
0 0 0 0 0 0 0 0 0 0 0 0 0 0 0 0 0 0 0 0 0 0 0 0 0 0 0 0 0 0 0 0 0 0 0 0 0 0 0 0 0 0 0
0 0 0 0 0 0 0 0 0 0 0 0 0 0 0 0 0 0 0 0 0 0 0 0 0 0 0 0 0 0 0 0 0 0 0 0 0 0 0 0 0 0 0
0 0 0 0 0 0 0 0 0 0 0 0 0 0 0 0 0 0 0 0 0 0 0 0 0 0 0 0 0 0 0 0 0 0 0 0 0 0 0 0 0 0 0
Wind_Speed
5 5 5 5 5 5 6 7 10 11 11 10 8 8 7 7 7 7 9 10 9 9 8 6 6 5 5 5 5 4 4 4 4 4 5 5 4 3 4 6 5 6 8
6 5 5 4 5 6 8 9 10 9 9 8 7 6 7 6 6 6 8 9 9 8 7 6 5 5 4 6 6 5 3 3 4 3 3 5 6 5 7 5 4 6 6
14 9 7 6 7 7 8 10 10 11 11 11 11 10 8 5 5 6 6 7 8 7 7 6 5 5 5 4 4 4 4 3 3 3 3 3 5 6 4 4 4 5 6
11 10 9 8 8 7 9 11 11 12 11 11 12 12 9 7 4 4 5 6 7 7 6 6 5 5 4 4 4 4 3 3 3 3 1 1 3 4 7 5 4 6 7
15 14 11 10 9 9 10 10 12 11 9 9 11 12 9 7 6 6 7 6 5 6 6 6 5 4 4 4 4 4 4 2 2 2 3 2 3 4 5 9 7 7 6
14 12 9 10 9 9 10 10 12 11 10 10 10 12 12 11 9 7 6 4 3 4 5 5 4 4 3 3 3 3 4 3 3 3 3 3 3 4 5 9 12 9 6
18 16 15 13 12 12 11 11 13 12 10 11 10 10 10 10 9 7 6 4 3 2 3 3 3 3 3 4 3 3 4 4 4 4 3 3 3 4 6 9 13 14 8
17 17 16 14 13 13 12 13 14 12 11 12 10 9 9 7 6 6 5 4 3 2 2 3 3 4 4 4 4 3 4 4 4 5 4 3 4 4 5 7 11 15 10
17 16 14 12 13 13 12 13 14 12 11 11 11 9 8 8 7 6 5 4 2 2 3 3 3 4 4 4 4 3 5 5 4 4 4 4 4 5 5 6 6 10 17
15 15 13 12 10 11 10 11 12 13 11 10 9 9 7 7 7 6 5 4 3 3 3 3 4 4 4 5 4 5 5 5 4 3 5 5 5 5 5 6 6 7 12
18 15 13 11 11 11 11 11 11 12 10 9 9 9 7 7 6 5 4 3 2 3 3 3 4 5 5 5 5 6 6 5 5 5 6 6 7 6 6 6 7 7 9
15 14 14 13 12 12 11 11 10 11 10 9 9 8 7 6 6 5 4 3 3 3 3 4 4 5 6 6 6 7 7 6 7 7 6 7 8 8 7 7 8 9 9
15 13 13 13 13 12 11 10 10 10 9 9 9 8 7 6 5 4 3 3 3 3 4 4 5 6 6 7 7 6 7 7 7 7 7 8 8 9 9 10 10 9 11
16 14 13 12 12 11 11 11 10 10 10 9 8 7 6 5 4 3 3 2 3 4 4 5 5 6 7 7 7 7 7 7 7 7 7 8 8 10 11 11 9 10 12
16 16 15 13 12 11 11 11 10 9 10 9 8 6 5 5 4 3 2 3 3 4 4 5 6 6 6 7 9 8 7 7 7 7 7 8 15 20 17 15 13 14 13
17 16 16 15 15 14 13 12 10 9 9 9 7 6 5 4 3 2 2 3 4 4 5 5 6 7 8 16 20 16 8 7 7 8 8 10 12 17 24 27 27 24 19
18 18 18 17 15 15 14 14 11 10 9 8 6 5 5 4 2 2 3 4 4 4 5 6 6 7 9 19 20 21 12 7 7 8 9 11 13 19 12 19 25 22 26
16 16 14 13 13 12 13 12 11 10 9 7 6 5 4 3 2 2 3 3 3 4 5 6 7 7 10 19 20 22 9 7 8 8 9 11 11 13 20 17 16 14 13
11 11 12 14 14 15 15 14 11 9 8 7 6 5 4 2 1 2 3 3 3 4 5 5 6 6 9 17 20 21 8 8 9 9 9 13 12 23 30 20 17 15 12
12 13 14 16 15 14 14 14 11 9 8 7 6 4 3 2 1 2 3 3 3 5 5 6 6 7 7 15 20 21 7 9 9 8 8 16 21 27 30 18 13 15 15
15 16 16 14 14 13 13 12 10 8 7 7 5 4 3 1 1 2 3 4 5 5 5 6 6 6 9 14 19 22 10 9 10 10 9 10 26 29 28 23 12 19 21
15 16 15 13 11 11 13 12 9 7 7 6 5 3 2 1 2 3 4 4 5 5 6 6 6 5 7 12 16 22 20 19 11 11 10 13 27 28 26 19 21 26 21
13 13 16 14 9 8 11 12 8 7 7 6 4 2 2 2 2 3 4 4 4 4 5 5 6 6 5 8 18 21 23 23 14 11 21 25 26 23 16 20 25 20 11
13 13 15 13 9 7 8 9 8 7 7 5 3 2 1 2 3 3 3 3 4 5 6 6 7 7 6 6 7 7 9 15 13 10 15 21 21 18 18 17 14 10 11
10 10 12 12 10 8 8 7 7 7 6 4 2 1 1 2 3 3 3 4 3 6 8 5 5 8 8 12 23 17 11 11 12 14 8 8 10 11 11 11 11 10 11
9 10 10 10 9 8 8 6 6 6 6 3 1 0 1 2 3 3 4 7 9 14 15 15 15 11 17 24 25 25 25 24 24 15 10 10 11 11 12 13 13 12 11
Wind_Direction
201 177 157 133 117 117 122 124 124 127 126 123 117 110 101 95 85 79 77 75 73 68 65 61 49 45 48 36 22 8 2 352 346 341 321 316 330 354 343 353 355 6 6
178 179 154 131 127 126 123 122 125 124 121 117 111 108 109 97 89 82 72 69 68 64 66 62 56 46 44 33 26 21 7 348 4 350 333 337 333 343 336 323 349 359 347
181 174 155 140 130 128 129 125 122 118 118 117 113 110 101 91 79 74 69 63 67 65 64 62 60 49 46 32 19 24 24 350 337 4 40 1 317 312 299 315 337 333 321
171 162 152 144 137 130 122 120 120 120 121 122 126 128 125 119 111 105 90 72 64 64 61 58 56 47 39 28 7 22 7 359 344 337 27 245 253 295 309 307 307 309 310
166 160 153 143 133 127 121 119 117 115 113 113 118 116 112 111 110 102 92 78 62 58 57 56 49 37 25 16 9 360 355 346 329 319 309 296 268 240 270 295 305 304 294
154 144 135 130 124 121 118 119 116 111 110 109 109 117 121 123 119 112 107 89 70 51 44 49 39 26 13 359 352 348 346 336 327 316 308 309 305 307 292 297 305 302 292
152 149 146 142 138 131 125 122 119 115 112 109 107 112 118 120 122 123 117 109 88 62 35 37 27 12 353 349 350 344 335 329 329 313 302 297 289 293 300 305 308 305 297
155 153 151 146 142 135 129 126 123 120 116 112 109 107 108 109 111 113 114 111 110 104 57 37 21 4 354 351 347 333 323 327 319 320 314 303 298 297 299 303 310 310 303
154 151 147 144 142 137 133 131 127 122 118 116 112 107 106 108 110 108 103 102 100 95 56 31 12 356 348 342 338 321 312 314 309 306 305 303 296 295 292 292 296 302 307
150 149 148 144 138 133 127 123 126 125 122 119 117 116 111 111 112 107 103 101 87 62 37 15 360 347 338 331 324 311 304 309 305 301 304 302 299 297 292 290 289 284 290
156 154 149 142 134 130 129 127 127 126 122 117 114 115 112 111 108 105 106 101 76 45 20 358 345 333 322 316 310 302 303 303 297 297 303 295 297 298 298 292 288 285 285
152 150 147 142 140 139 137 134 132 129 126 123 118 116 115 111 107 105 99 85 58 23 359 343 331 320 315 308 303 301 308 296 290 288 288 290 304 301 298 294 290 289 283
148 147 149 150 149 147 143 139 135 132 128 124 119 116 116 114 112 107 89 64 34 1 343 334 322 313 309 306 300 294 290 284 281 280 281 288 297 301 299 296 293 291 294
155 155 155 154 151 149 145 140 134 133 130 124 121 122 124 123 120 106 75 38 10 347 334 325 317 312 309 302 295 292 289 285 280 276 277 283 290 295 299 300 294 300 301
162 164 161 156 151 146 142 139 135 133 131 126 124 127 127 121 112 88 46 12 355 343 332 326 320 317 313 312 317 308 301 298 293 288 283 287 305 311 311 310 310 306 301
170 167 163 159 157 153 147 141 136 134 130 127 128 128 125 118 104 67 25 3 348 337 333 324 316 315 325 327 329 330 316 308 307 306 302 299 306 307 315 313 308 307 307
172 172 170 165 159 153 147 142 139 133 128 128 129 130 126 117 90 45 17 352 334 327 321 313 309 306 312 331 334 332 333 325 313 306 306 310 311 314 298 299 305 306 304
172 169 161 151 142 138 137 133 132 132 130 129 131 130 124 110 72 28 354 326 311 312 304 301 303 305 317 335 334 333 337 314 302 297 295 296 299 304 308 306 307 303 302
154 146 140 136 135 137 137 132 130 128 129 133 135 132 125 109 48 353 323 307 304 304 296 296 302 306 313 329 331 333 315 305 299 292 295 305 305 307 314 317 312 311 307
126 127 127 129 132 136 134 131 133 134 137 139 136 130 121 103 2 315 301 295 296 291 298 301 302 303 300 318 330 328 308 307 307 301 294 310 314 314 319 321 319 316 311
120 124 127 131 134 134 131 130 134 138 136 130 127 119 103 61 317 312 299 301 301 303 304 303 302 298 305 322 328 327 325 314 315 316 315 309 317 321 325 328 320 311 319
118 123 122 121 124 129 129 129 133 131 125 124 119 107 76 5 354 331 312 308 308 310 310 308 307 296 301 321 324 328 328 328 320 316 313 313 321 327 328 327 318 323 328
115 118 120 118 114 119 128 131 133 130 124 118 111 94 41 359 340 320 313 313 315 313 311 310 313 314 308 314 324 327 329 330 326 314 318 323 327 329 326 319 324 328 322
115 119 119 120 116 112 114 124 130 127 121 118 109 80 17 333 325 314 309 312 313 312 315 322 323 319 314 307 306 310 319 325 323 317 321 327 326 324 321 322 323 320 315
113 118 123 125 123 118 115 120 124 120 116 114 105 57 329 310 310 313 310 318 294 315 328 320 313 321 321 321 330 333 326 327 324 330 325 322 322 323 321 320 319 319 319
117 116 118 122 123 121 120 122 121 120 120 119 125 269 291 298 305 314 317 332 337 334 335 333 331 323 322 325 331 331 332 334 335 336 325 322 322 320 320 320 319 319 318